Weather History for Milton, FL

Change the Weather History Date:

Saturday, August 17, 2013

  Actual Average (KNSE) Record (KNSE)
Temperature  
Mean Temperature 73 °F -  
Max Temperature 75 °F 87 °F 97 °F (2011)
Min Temperature 71 °F 70 °F 66 °F (2004)
Cooling Degree Days 8    
Growing Degree Days 23 (Base 50)    
Moisture  
Dew Point 71 °F    
Average Humidity 93    
Maximum Humidity 100    
Minimum Humidity 87    
Precipitation  
Precipitation 1.96 in - - ()
Sea Level Pressure  
Sea Level Pressure 29.98 in    
Wind  
Wind Speed 6 mph (East)    
Max Wind Speed 12 mph    
Max Gust Speed -    
Visibility 9 miles    
Events Rain    
Averages and records for this station are not official NWS values.
T = Trace of Precipitation, MM = Missing Value Source: NWS Daily Summary

Daily Weather History Graph

Daily Weather History Graph

Search for Another Location

Airport:

Trip Planner

Search our weather history database for the weather conditions in past years. The results will help you decide how hot, cold, wet, or windy it might be!

Date:

Astronomy

Aug. 17, 2013 Rise Set
Actual Time 6:15 AM CDT 7:27 PM CDT
Civil Twilight 5:50 AM CDT 7:52 PM CDT
Nautical Twilight 5:20 AM CDT 8:22 PM CDT
Astronomical Twilight 4:49 AM CDT 8:53 PM CDT
Moon 4:36 PM CDT (8/17) 2:26 AM CDT (8/17)
Length of Visible Light 14h 02m
Length of Day
13h 11m
Waxing Gibbous, 84% of the Moon is Illuminated
Aug 17
Waxing Gibbous
Aug 20
Full
Aug 28
Last Quarter
Sep 5
New
Sep 12
First Quarter

Hourly Weather History & Observations

Time (CDT) Temp. Dew Point Humidity Pressure Visibility Wind Dir Wind Speed Gust Speed Precip Events Conditions
12:37 AM 75.2 °F 71.6 °F 89% 30.01 in 10.0 mi NE 5.8 mph - 0.04 in Rain Light Rain
12:56 AM 75.0 °F 72.0 °F 90% 29.95 in 10.0 mi ENE 5.8 mph - 0.06 in Rain Rain
1:56 AM 75.0 °F 72.0 °F 90% 29.95 in 10.0 mi ENE 3.5 mph - 0.03 in Rain Light Rain
2:03 AM 75.2 °F 71.6 °F 89% 29.99 in 9.0 mi ENE 4.6 mph - 0.02 in Rain Rain
2:51 AM 73.4 °F 71.6 °F 94% 29.97 in 6.0 mi East 9.2 mph - 0.20 in Rain Rain
2:56 AM 73.9 °F 72.0 °F 93% 29.93 in 7.0 mi ENE 8.1 mph - 0.22 in Rain Rain
3:56 AM 73.9 °F 72.0 °F 93% 29.94 in 7.0 mi ENE 5.8 mph - 0.33 in Rain Heavy Rain
4:10 AM 73.4 °F 71.6 °F 94% 29.98 in 7.0 mi East 5.8 mph - 0.05 in Rain Heavy Rain
4:42 AM 73.4 °F 71.6 °F 94% 29.98 in 5.0 mi East 8.1 mph - 0.18 in Rain Rain
4:48 AM 73.4 °F 71.6 °F 94% 29.97 in 6.0 mi East 8.1 mph - 0.21 in Rain Heavy Rain
4:56 AM 73.0 °F 70.0 °F 90% 29.93 in 7.0 mi ENE 9.2 mph - 0.24 in Rain Rain
5:04 AM 73.4 °F 71.6 °F 94% 29.96 in 7.0 mi ENE 9.2 mph - 0.03 in Rain Heavy Rain
5:56 AM 72.0 °F 70.0 °F 93% 29.92 in 10.0 mi ENE 11.5 mph - 0.13 in Rain Light Rain
6:52 AM 73.4 °F 71.6 °F 94% 29.98 in 10.0 mi ENE 6.9 mph - 0.05 in Rain Rain
6:56 AM 73.0 °F 72.0 °F 96% 29.94 in 10.0 mi ENE 5.8 mph - 0.06 in Rain Light Rain
7:08 AM 71.6 °F 71.6 °F 100% 29.99 in 6.0 mi NE 4.6 mph - 0.06 in Rain Heavy Rain
7:56 AM 73.0 °F 72.0 °F 96% 29.95 in 7.0 mi NNE 5.8 mph - 0.27 in Rain Rain
8:56 AM 73.0 °F 72.0 °F 96% 29.96 in 10.0 mi NNE 6.9 mph - 0.05 in Rain Light Rain
9:11 AM 73.4 °F 71.6 °F 94% 30.00 in 10.0 mi ENE 9.2 mph - 0.02 in Rain Light Rain
9:42 AM 73.4 °F 71.6 °F 94% 30.01 in 10.0 mi ENE 9.2 mph - 0.04 in Rain Light Rain
9:56 AM 73.0 °F 71.1 °F 93% 29.97 in 10.0 mi ENE 8.1 mph - 0.05 in Rain Light Rain
10:04 AM 73.4 °F 71.6 °F 94% 30.02 in 10.0 mi ENE 8.1 mph - 0.00 in Rain Light Rain
10:25 AM 73.4 °F 71.6 °F 94% 30.02 in 10.0 mi ENE 5.8 mph - 0.01 in Rain Light Rain
10:56 AM 73.0 °F 71.1 °F 93% 29.97 in 10.0 mi ENE 9.2 mph - 0.05 in Rain Light Rain
11:14 AM 73.4 °F 71.6 °F 94% 30.02 in 10.0 mi East 9.2 mph - 0.03 in Rain Light Rain
11:56 AM 73.0 °F 71.1 °F 93% 29.96 in 10.0 mi East 11.5 mph - 0.09 in Rain Light Rain
12:05 PM 73.4 °F 71.6 °F 94% 30.01 in 10.0 mi East 11.5 mph - 0.01 in Rain Rain
12:19 PM 73.4 °F 71.6 °F 94% 30.01 in 10.0 mi East 9.2 mph - 0.04 in Rain Rain
12:56 PM 73.9 °F 72.0 °F 93% 29.97 in 10.0 mi East 9.2 mph - 0.08 in Rain Light Rain
1:44 PM 73.4 °F 71.6 °F 94% 30.00 in 10.0 mi ESE 8.1 mph - 0.03 in Rain Light Rain
1:56 PM 73.9 °F 72.0 °F 93% 29.96 in 10.0 mi ESE 6.9 mph - 0.05 in Rain Rain
2:13 PM 73.4 °F 71.6 °F 94% 30.01 in 10.0 mi SE 6.9 mph - 0.02 in Rain Light Rain
2:37 PM 73.4 °F 71.6 °F 94% 30.01 in 10.0 mi SSE 3.5 mph - 0.03 in Rain Light Rain
2:53 PM 73.4 °F 71.6 °F 94% 30.00 in 10.0 mi SE 4.6 mph - 0.05 in Rain Rain
2:56 PM 73.9 °F 72.0 °F 93% 29.96 in 10.0 mi SSE 3.5 mph - 0.06 in Rain Rain
3:05 PM 73.4 °F 71.6 °F 94% 30.01 in 10.0 mi Calm Calm - 0.01 in Rain Light Rain
3:18 PM 73.4 °F 73.4 °F 100% 30.01 in 10.0 mi Calm Calm - 0.01 in Rain Light Rain
3:49 PM 73.4 °F 71.6 °F 94% 30.01 in 10.0 mi South 4.6 mph - 0.02 in Rain Light Rain
3:56 PM 73.9 °F 71.1 °F 91% 29.97 in 10.0 mi South 4.6 mph - 0.02 in   Overcast
4:45 PM 73.4 °F 69.8 °F 88% 30.00 in 10.0 mi SSE 4.6 mph - N/A   Mostly Cloudy
4:53 PM 73.4 °F 69.8 °F 88% 30.00 in 10.0 mi SE 4.6 mph - N/A   Mostly Cloudy
4:56 PM 73.9 °F 70.0 °F 87% 29.95 in 10.0 mi SE 3.5 mph - N/A   Mostly Cloudy
5:13 PM 73.4 °F 71.6 °F 94% 30.00 in 10.0 mi SE 4.6 mph - 0.01 in Rain Light Rain
5:29 PM 73.4 °F 71.6 °F 94% 30.01 in 10.0 mi Calm Calm - 0.01 in Rain Light Rain
5:56 PM 73.9 °F 71.1 °F 91% 29.98 in 10.0 mi ESE 3.5 mph - 0.03 in Rain Rain
6:05 PM 73.4 °F 71.6 °F 94% 30.02 in 10.0 mi Calm Calm - 0.02 in Rain Rain
6:41 PM 73.4 °F 71.6 °F 94% 30.02 in 10.0 mi Calm Calm - 0.07 in Rain Light Rain
6:56 PM 73.9 °F 71.1 °F 91% 29.98 in 10.0 mi Calm Calm - 0.08 in Rain Light Rain
7:56 PM 73.0 °F 70.0 °F 90% 29.97 in 10.0 mi Calm Calm - 0.00 in   Mostly Cloudy
8:56 PM 73.0 °F 71.1 °F 93% 30.00 in 10.0 mi Calm Calm - N/A   Scattered Clouds
9:56 PM 72.0 °F 70.0 °F 93% 30.00 in 10.0 mi Calm Calm - 0.03 in Rain Light Rain
10:56 PM 72.0 °F 70.0 °F 93% 29.98 in 10.0 mi NE 3.5 mph - 0.01 in   Mostly Cloudy
11:05 PM 71.6 °F 69.8 °F 94% 30.02 in 10.0 mi Calm Calm - N/A   Mostly Cloudy
11:56 PM 71.1 °F 69.1 °F 93% 29.97 in 10.0 mi NNE 8.1 mph - 0.02 in   Overcast